Tracking 27380 objects as of 6-Jun-2023
HD Live streaming from Space Station
objects crossing your sky now

FENGYUN 1C DEB

Track FENGYUN 1C DEB now!
10-day predictions


NORAD ID: 35167
Int'l Code: 1999-025DMX
Perigee: 636.9 km
Apogee: 994.6 km
Inclination: 98.4 °
Period: 101.1 minutes
Semi major axis: 7186 km
RCS: 0.0088 m2 (small)
Launch date: May 10, 1999
Source: People's Republic of China (PRC)
Launch site: Taiyaun Space Center, China (TSC)

Note: This is SATELLITE DEBRIS
Your satellite tracking list
Your tracking list is empty




NASA's NSSDC Master Catalog

Two Line Element Set (TLE):
1 35167U 99025DMX 23156.27002802  .00002702  00000-0  84991-3 0  9990
2 35167  98.4290 168.8708 0248860  38.6174 323.2515 14.24978692568698
Source of the keplerian elements: AFSPC